Doha, Qatar

10:22 AM +03 on March 25, 2017 (GMT +0300)
Doha International

Weather History for OTBD - July, 2012

Change the Weather History Date:

Wednesday, July 18, 2012

  Actual Average Record
Temperature  
Mean Temperature 102 °F -  
Max Temperature 111 °F 106 °F 114 °F (2015)
Min Temperature 92 °F 84 °F 84 °F (2001)
Cooling Degree Days 36    
Growing Degree Days 52 (Base 50)    
Moisture  
Dew Point 78 °F    
Average Humidity 55    
Maximum Humidity 84    
Minimum Humidity 13    
Precipitation  
Precipitation 0.00 in 0.00 in - ()
Sea Level Pressure  
Sea Level Pressure 29.47 in    
Wind  
Wind Speed 8 mph ()    
Max Wind Speed 18 mph    
Max Gust Speed -    
Visibility 4.9 miles    
Events      
Averages and records for this station are not official NWS values.
T = Trace of Precipitation, MM = Missing Value Source: Averaged Metar Reports

Daily Weather History Graph

Daily Weather History Graph

Search for Another Location

Airport or City:

Trip Planner

Search our weather history database for the weather conditions in past years. The results will help you decide how hot, cold, wet, or windy it might be!

Date:

Astronomy

Jul. 18, 2012 Rise Set
Actual Time 4:54 AM +03 6:25 PM +03
Civil Twilight 4:29 AM +03 6:50 PM +03
Nautical Twilight 3:58 AM +03 7:20 PM +03
Astronomical Twilight 3:27 AM +03 7:52 PM +03
Moon 4:03 AM +03 (7/18) 5:44 PM +03 (7/18)
Length of Visible Light 14h 21m
Length of Day
13h 31m
Waning Crescent, 1% of the Moon is Illuminated
Jul 18
Waning Crescent
Jul 19
New
Jul 26
First Quarter
Aug 2
Full
Aug 9
Last Quarter

Hourly Weather History & Observations

Time (+03) Temp. Heat Index Dew Point Humidity Pressure Visibility Wind Dir Wind Speed Gust Speed Precip Events Conditions
12:00 AM 93.2 °F 124.9 °F 86.0 °F 79% 29.47 in 4.3 mi East 6.9 mph - N/A   Unknown
12:30 AM 93.2 °F 124.9 °F 86.0 °F 79% 29.44 in 4.3 mi East 8.1 mph - N/A   Unknown
1:00 AM 93.2 °F 124.9 °F 86.0 °F 79% 29.44 in 4.3 mi East 5.8 mph - N/A   Unknown
1:30 AM 93.2 °F 120.9 °F 84.2 °F 75% 29.44 in 4.3 mi East 5.8 mph - N/A   Unknown
2:00 AM 93.2 °F 120.9 °F 84.2 °F 75% 29.47 in 4.3 mi ENE 4.6 mph - N/A   Unknown
2:30 AM 93.2 °F 120.9 °F 84.2 °F 75% 29.47 in 4.3 mi ENE 4.6 mph - N/A   Unknown
3:00 AM 93 °F - 85 °F 72% 29.48 in 4 mi ENE 4.6 mph - -   Haze
3:00 AM 93.2 °F 124.9 °F 86.0 °F 79% 29.47 in 4.3 mi ENE 4.6 mph - N/A   Unknown
3:30 AM 93.2 °F 120.9 °F 84.2 °F 75% 29.47 in 4.3 mi NE 5.8 mph - N/A   Unknown
4:00 AM 93.2 °F 120.9 °F 84.2 °F 75% 29.47 in 4.3 mi NE 4.6 mph - N/A   Unknown
4:30 AM 93.2 °F 124.9 °F 86.0 °F 79% 29.47 in 4.3 mi ENE 5.8 mph - N/A   Unknown
5:00 AM 93.2 °F 124.9 °F 86.0 °F 79% 29.50 in 4.3 mi East 4.6 mph - N/A   Unknown
5:30 AM 93.2 °F 124.9 °F 86.0 °F 79% 29.50 in 4.3 mi East 4.6 mph - N/A   Unknown
6:00 AM 93.2 °F 130.3 °F 87.8 °F 84% 29.50 in 4.3 mi ESE 3.5 mph - N/A   Unknown
6:30 AM 95.0 °F 133.8 °F 87.8 °F 80% 29.50 in 4.3 mi ESE 3.5 mph - N/A   Unknown
7:00 AM 98.6 °F 124.6 °F 82.4 °F 60% 29.53 in 5.0 mi SE 9.2 mph - N/A   Unknown
7:30 AM 100.4 °F 119.5 °F 78.8 °F 50% 29.50 in 5.0 mi SE 12.7 mph - N/A   Unknown
8:00 AM 102.2 °F 114.4 °F 73.4 °F 40% 29.50 in - SSE 10.4 mph - N/A   Clear
8:30 AM 104.0 °F 116.8 °F 73.4 °F 38% 29.50 in - SE 9.2 mph - N/A   Clear
9:00 AM 104 °F - 72 °F 27% 29.52 in 6 mi SE 11.5 mph - -  
9:00 AM 104.0 °F 114.0 °F 71.6 °F 35% 29.50 in - SE 11.5 mph - N/A   Clear
9:30 AM 107.6 °F 115.0 °F 68.0 °F 28% 29.50 in - SSE 10.4 mph - N/A   Clear
10:00 AM 105.8 °F 116.1 °F 71.6 °F 33% 29.50 in - SE 13.8 mph - N/A   Clear
10:30 AM 104.0 °F 114.0 °F 71.6 °F 35% 29.50 in - SE 17.3 mph - N/A   Clear
11:00 AM 104.0 °F 114.0 °F 71.6 °F 35% 29.47 in 5.6 mi SE 17.3 mph - N/A   Unknown
11:30 AM 107.6 °F 115.0 °F 68.0 °F 28% 29.47 in 5.6 mi SSE 13.8 mph - N/A   Unknown
12:00 PM 107.6 °F 113.2 °F 66.2 °F 26% 29.47 in - SSE 17.3 mph - N/A   Clear
12:30 PM 105.8 °F 114.2 °F 69.8 °F 31% 29.47 in - SE 16.1 mph - N/A   Clear
1:00 PM 107.6 °F 117.0 °F 69.8 °F 30% 29.47 in - SE 16.1 mph - N/A   Clear
1:30 PM 107.6 °F 113.2 °F 66.2 °F 26% 29.44 in - SE 18.4 mph - N/A   Clear
2:00 PM 109.4 °F 115.6 °F 66.2 °F 25% 29.47 in - SE 13.8 mph - N/A   Clear
2:30 PM 109.4 °F 113.7 °F 64.4 °F 23% 29.44 in - SE 15.0 mph - N/A   Clear
3:00 PM 110 °F - 61 °F 13% 29.44 in 6 mi SE 16.1 mph - -  
3:00 PM 111.2 °F 114.0 °F 60.8 °F 20% 29.42 in - SE 16.1 mph - N/A   Clear
3:30 PM 109.4 °F 117.7 °F 68.0 °F 27% 29.42 in - SE 16.1 mph - N/A   Clear
4:00 PM 109.4 °F 115.6 °F 66.2 °F 25% 29.42 in - SE 12.7 mph - N/A   Clear
4:30 PM 107.6 °F 115.0 °F 68.0 °F 28% 29.42 in - SE 12.7 mph - N/A   Clear
5:00 PM 105.8 °F 121.3 °F 75.2 °F 38% 29.42 in - ESE 9.2 mph - N/A   Clear
5:30 PM 102.2 °F 124.9 °F 80.6 °F 50% 29.42 in - East 5.8 mph - N/A   Clear
6:00 PM 100.4 °F 122.7 °F 80.6 °F 53% 29.44 in - North 12.7 mph - N/A   Clear
6:30 PM 98.6 °F 120.3 °F 80.6 °F 56% 29.44 in - NNE 12.7 mph - N/A   Clear
7:00 PM 96.8 °F 121.7 °F 82.4 °F 63% 29.44 in 5.6 mi NNE 11.5 mph - N/A   Unknown
7:30 PM 95.0 °F 123.7 °F 84.2 °F 71% 29.47 in 5.0 mi NNE 10.4 mph - N/A   Unknown
8:00 PM 95.0 °F 123.7 °F 84.2 °F 71% 29.47 in 5.0 mi NNE 8.1 mph - N/A   Unknown
8:30 PM 95.0 °F 123.7 °F 84.2 °F 71% 29.50 in 5.0 mi North 6.9 mph - N/A   Unknown
9:00 PM 94 °F - 85 °F 70% 29.52 in 5 mi North 9.2 mph - -   Haze
9:00 PM 93.2 °F 124.9 °F 86.0 °F 79% 29.50 in 5.0 mi North 9.2 mph - N/A   Unknown
9:30 PM 93.2 °F 124.9 °F 86.0 °F 79% 29.50 in 5.6 mi North 11.5 mph - N/A   Unknown
10:00 PM 93.2 °F 120.9 °F 84.2 °F 75% 29.53 in 5.6 mi North 10.4 mph - N/A   Unknown
10:30 PM 93.2 °F 120.9 °F 84.2 °F 75% 29.50 in 5.6 mi North 10.4 mph - N/A   Unknown
11:00 PM 93.2 °F 120.9 °F 84.2 °F 75% 29.50 in 5.6 mi NNE 8.1 mph - N/A   Unknown
11:30 PM 93.2 °F 120.9 °F 84.2 °F 75% 29.50 in 5.0 mi NNE 6.9 mph - N/A   Unknown